Location: Milano
(45.4670°N, 9.2000°E)
Time: 19:26:09
(UTC+02:00)

ISS - Pass Details

Date: 22 May 2021
Orbit: 417 x 422 km, 51.6° (Epoch: 14 June)

Event Time Altitude Azimuth Distance (km) Brightness Sun altitude
Rises 01:20:57 0° 298° (WNW) 2,371 0.4 -24.1°
Reaches altitude 10° 01:23:03 10° 298° (WNW) 1,505 -0.6 -24.1°
Enters shadow 01:24:00 18° 297° (WNW) 1,124 -1.3 -24.1°
